SB KEPS @ AMSAT $ORB08185.O Orbital Elements 08185.OSCAR
HR AMSAT ORBITAL ELEMENTS FOR OSCAR SATELLITES FROM WA5QGD FORT WORTH,TX July 3, 2008 Send Subscribe/unsubscribe to KEPS at http://www.amsat.org/mailman/listinfo/keps BID: ORB08185.O TO ALL RADIO AMATEURS BT
Satellite: AO-07 Catalog number: 07530 Epoch time: 08185.65390340 Element set: 217 Inclination: 101.4640 deg RA of node: 216.5992 deg Eccentricity: 0.0011663 Arg of perigee: 229.6458 deg Mean anomaly: 130.3594 deg Mean motion: 12.53573671 rev/day Decay rate: -2.7e-07 rev/day^2 Epoch rev: 53904 Checksum: 294
Satellite: AO-10 Catalog number: 14129 Epoch time: 08183.30936577 Element set: 0525 Inclination: 025.9847 deg RA of node: 207.7081 deg Eccentricity: 0.5980188 Arg of perigee: 136.5615 deg Mean anomaly: 290.3484 deg Mean motion: 02.05868048 rev/day Decay rate: 1.47e-06 rev/day^2 Epoch rev: 18839 Checksum: 338
Satellite: UO-11 Catalog number: 14781 Epoch time: 08184.60401147 Element set: 0710 Inclination: 098.1526 deg RA of node: 218.8674 deg Eccentricity: 0.0009656 Arg of perigee: 029.8545 deg Mean anomaly: 330.3223 deg Mean motion: 14.79652144 rev/day Decay rate: 2.73e-06 rev/day^2 Epoch rev: 30613 Checksum: 295
Satellite: RS-15 Catalog number: 23439 Epoch time: 08184.97828479 Element set: 0168 Inclination: 064.8155 deg RA of node: 109.5126 deg Eccentricity: 0.0147379 Arg of perigee: 119.9169 deg Mean anomaly: 241.6484 deg Mean motion: 11.27552338 rev/day Decay rate: -3.9e-07 rev/day^2 Epoch rev: 55674 Checksum: 354
Satellite: FO-29 Catalog number: 24278 Epoch time: 08184.87385138 Element set: 0821 Inclination: 098.5865 deg RA of node: 099.1124 deg Eccentricity: 0.0350696 Arg of perigee: 174.8452 deg Mean anomaly: 185.6452 deg Mean motion: 13.52937609 rev/day Decay rate: -4.3e-07 rev/day^2 Epoch rev: 58651 Checksum: 356
Satellite: SO-33 Catalog number: 25509 Epoch time: 08184.49825648 Element set: 0233 Inclination: 031.4301 deg RA of node: 229.7860 deg Eccentricity: 0.0354867 Arg of perigee: 161.1729 deg Mean anomaly: 200.2392 deg Mean motion: 14.28217975 rev/day Decay rate: 2.49e-06 rev/day^2 Epoch rev: 50580 Checksum: 315
Satellite: AO-40 Catalog number: 26609 Epoch time: 08185.52866151 Element set: 85 Inclination: 007.6040 deg RA of node: 074.2959 deg Eccentricity: 0.7919778 Arg of perigee: 097.6292 deg Mean anomaly: 347.5908 deg Mean motion: 01.25582665 rev/day Decay rate: -1.99e-06 rev/day^2 Epoch rev: 3524 Checksum: 352
Satellite: VO-52 Catalog number: 28650 Epoch time: 08185.81892915 Element set: 971 Inclination: 097.7904 deg RA of node: 251.9735 deg Eccentricity: 0.0028426 Arg of perigee: 086.8609 deg Mean anomaly: 273.5884 deg Mean motion: 14.81478603 rev/day Decay rate: 9.9e-07 rev/day^2 Epoch rev: 17106 Checksum: 360
Satellite: PO-63 Catalog number: 29712 Epoch time: 08185.85367509 Element set: 585 Inclination: 097.8746 deg RA of node: 243.7273 deg Eccentricity: 0.0013836 Arg of perigee: 332.8784 deg Mean anomaly: 027.1702 deg Mean motion: 14.80200540 rev/day Decay rate: 3.91e-06 rev/day^2 Epoch rev: 7993 Checksum: 332
/EX SB KEPS @ AMSAT $ORB08185.D Orbital Elements 08185.MICROS
HR AMSAT ORBITAL ELEMENTS FOR THE MICROSATS FROM WA5QGD FORT WORTH,TX July 3, 2008 Send Subscribe/unsubscribe to KEPS at http://www.amsat.org/mailman/listinfo/keps BID: ORB08185.D TO ALL RADIO AMATEURS BT
Satellite: AO-16 Catalog number: 20439 Epoch time: 08185.84268931 Element set: 359 Inclination: 098.2300 deg RA of node: 165.0532 deg Eccentricity: 0.0011580 Arg of perigee: 123.4387 deg Mean anomaly: 236.7904 deg Mean motion: 14.31797435 rev/day Decay rate: 1.0e-07 rev/day^2 Epoch rev: 96330 Checksum: 300
Satellite: LO-19 Catalog number: 20442 Epoch time: 08183.86097530 Element set: 0286 Inclination: 098.2001 deg RA of node: 171.6653 deg Eccentricity: 0.0012599 Arg of perigee: 127.4252 deg Mean anomaly: 232.8017 deg Mean motion: 14.32035237 rev/day Decay rate: -3.9e-07 rev/day^2 Epoch rev: 96317 Checksum: 297
Satellite: AO-27 Catalog number: 22825 Epoch time: 08185.44240607 Element set: 7 Inclination: 098.3836 deg RA of node: 144.8546 deg Eccentricity: 0.0007855 Arg of perigee: 207.9429 deg Mean anomaly: 152.1308 deg Mean motion: 14.29243324 rev/day Decay rate: 2.12e-06 rev/day^2 Epoch rev: 77009 Checksum: 303
Satellite: IO-26 Catalog number: 22826 Epoch time: 08184.79367505 Element set: 712 Inclination: 098.3780 deg RA of node: 145.1330 deg Eccentricity: 0.0008346 Arg of perigee: 206.9341 deg Mean anomaly: 153.1411 deg Mean motion: 14.29491019 rev/day Decay rate: -3.0e-08 rev/day^2 Epoch rev: 77009 Checksum: 294
Satellite: PO-28 Catalog number: 22829 Epoch time: 08185.89192965 Element set: 984 Inclination: 098.3651 deg RA of node: 147.2915 deg Eccentricity: 0.0009639 Arg of perigee: 174.3967 deg Mean anomaly: 185.7350 deg Mean motion: 14.30193268 rev/day Decay rate: 2.17e-06 rev/day^2 Epoch rev: 77051 Checksum: 356
Satellite: GO-32 Catalog number: 25397 Epoch time: 08184.85932827 Element set: 0639 Inclination: 098.3632 deg RA of node: 219.2469 deg Eccentricity: 0.0001228 Arg of perigee: 149.4342 deg Mean anomaly: 210.6887 deg Mean motion: 14.23145652 rev/day Decay rate: 8.5e-07 rev/day^2 Epoch rev: 51844 Checksum: 329
Satellite: NO-44 Catalog number: 26931 Epoch time: 08184.67779430 Element set: 0919 Inclination: 067.0524 deg RA of node: 244.7501 deg Eccentricity: 0.0007084 Arg of perigee: 272.2461 deg Mean anomaly: 087.7826 deg Mean motion: 14.29527155 rev/day Decay rate: 1.09e-06 rev/day^2 Epoch rev: 35262 Checksum: 319
Satellite: SO-50 Catalog number: 27607 Epoch time: 08184.97884525 Element set: 641 Inclination: 064.5590 deg RA of node: 005.6802 deg Eccentricity: 0.0086066 Arg of perigee: 276.5626 deg Mean anomaly: 082.5694 deg Mean motion: 14.71365848 rev/day Decay rate: 1.9e-07 rev/day^2 Epoch rev: 29729 Checksum: 348
Satellite: CO-55 Catalog number: 27844 Epoch time: 08184.65034382 Element set: 341 Inclination: 098.7151 deg RA of node: 192.7018 deg Eccentricity: 0.0011075 Arg of perigee: 072.6039 deg Mean anomaly: 287.6347 deg Mean motion: 14.20585995 rev/day Decay rate: 1.5e-07 rev/day^2 Epoch rev: 25963 Checksum: 322
Satellite: CO-57 Catalog number: 27848 Epoch time: 08185.56626858 Element set: 293 Inclination: 098.7153 deg RA of node: 192.6972 deg Eccentricity: 0.0010754 Arg of perigee: 072.6903 deg Mean anomaly: 287.5473 deg Mean motion: 14.20395027 rev/day Decay rate: 3.9e-07 rev/day^2 Epoch rev: 25973 Checksum: 354
Satellite: AO-51 Catalog number: 28375 Epoch time: 08184.81533105 Element set: 138 Inclination: 098.0695 deg RA of node: 208.5057 deg Eccentricity: 0.0084733 Arg of perigee: 104.8281 deg Mean anomaly: 256.2310 deg Mean motion: 14.40612498 rev/day Decay rate: 7.0e-08 rev/day^2 Epoch rev: 21065 Checksum: 294
Satellite: CO-56 Catalog number: 28941 Epoch time: 08185.77359215 Element set: 185 Inclination: 098.1083 deg RA of node: 298.7592 deg Eccentricity: 0.0162358 Arg of perigee: 341.1511 deg Mean anomaly: 018.3656 deg Mean motion: 15.57923605 rev/day Decay rate: 1.0168e-04 rev/day^2 Epoch rev: 13262 Checksum: 332
Satellite: CP4 Catalog number: 31122 Epoch time: 08185.73384958 Element set: 378 Inclination: 098.0399 deg RA of node: 250.7140 deg Eccentricity: 0.0083805 Arg of perigee: 277.2481 deg Mean anomaly: 081.9167 deg Mean motion: 14.55139006 rev/day Decay rate: 5.49e-06 rev/day^2 Epoch rev: 6448 Checksum: 327
Satellite: CP3 Catalog number: 31128 Epoch time: 08185.73633459 Element set: 370 Inclination: 098.0370 deg RA of node: 248.4749 deg Eccentricity: 0.0101355 Arg of perigee: 283.7454 deg Mean anomaly: 075.2472 deg Mean motion: 14.51956699 rev/day Decay rate: -4.8e-07 rev/day^2 Epoch rev: 6433 Checksum: 324
/EX SB KEPS @ AMSAT $ORB08185.W Orbital Elements 08185.WEATHER
HR AMSAT ORBITAL ELEMENTS FOR WEATHER SATELLITES FROM WA5QGD FORT WORTH,TX July 3, 2008 Send Subscribe/unsubscribe to KEPS at http://www.amsat.org/mailman/listinfo/keps BID: ORB08185.W TO ALL RADIO AMATEURS BT
Satellite: NOAA-10 Catalog number: 16969 Epoch time: 08185.13722612 Element set: 181 Inclination: 098.7208 deg RA of node: 207.0743 deg Eccentricity: 0.0012907 Arg of perigee: 131.6995 deg Mean anomaly: 228.5292 deg Mean motion: 14.27363243 rev/day Decay rate: 3.1e-07 rev/day^2 Epoch rev: 13371 Checksum: 293
Satellite: NOAA-11 Catalog number: 19531 Epoch time: 08185.29119030 Element set: 219 Inclination: 098.7982 deg RA of node: 274.3921 deg Eccentricity: 0.0011956 Arg of perigee: 026.3243 deg Mean anomaly: 333.8543 deg Mean motion: 14.14873170 rev/day Decay rate: 1.81e-06 rev/day^2 Epoch rev: 2018 Checksum: 289
Satellite: NOAA-12 Catalog number: 21263 Epoch time: 08185.55591256 Element set: 736 Inclination: 098.7656 deg RA of node: 187.5054 deg Eccentricity: 0.0013545 Arg of perigee: 079.1835 deg Mean anomaly: 281.0886 deg Mean motion: 14.25536757 rev/day Decay rate: -1.01e-06 rev/day^2 Epoch rev: 89072 Checksum: 332
Satellite: MET-3/5 Catalog number: 21655 Epoch time: 08185.90640830 Element set: 454 Inclination: 082.5557 deg RA of node: 092.5781 deg Eccentricity: 0.0013205 Arg of perigee: 337.6356 deg Mean anomaly: 022.4188 deg Mean motion: 13.17015950 rev/day Decay rate: 5.1e-07 rev/day^2 Epoch rev: 81178 Checksum: 299
Satellite: MET-2/21 Catalog number: 22782 Epoch time: 08184.75690167 Element set: 0186 Inclination: 082.5485 deg RA of node: 099.2301 deg Eccentricity: 0.0020996 Arg of perigee: 245.6027 deg Mean anomaly: 114.2944 deg Mean motion: 13.83630915 rev/day Decay rate: -9.0e-08 rev/day^2 Epoch rev: 74928 Checksum: 327
Satellite: OKEAN-4 Catalog number: 23317 Epoch time: 08185.72690773 Element set: 630 Inclination: 082.5409 deg RA of node: 299.6344 deg Eccentricity: 0.0024013 Arg of perigee: 074.0776 deg Mean anomaly: 286.3061 deg Mean motion: 14.82620803 rev/day Decay rate: -1.4e-07 rev/day^2 Epoch rev: 74073 Checksum: 296
